Weather Roundup
Issued by NWS

Home | Current Version | Previous Version | Graphics & Text | Print | Product List | Glossary Off
Versions: 1 2 3 4 5 6 7 8 9 10 11 12 13 14 15 16 17 18 19 20 21 22 23 24 25 26 27 28 29 30 31 32 33 34 35 36 37 38 39 40 41 42 43 44 45 46 47 48 49 50

010
NZUS93 KARX 201559
HRRWXR

CURRENT HOURLY OBSERVATIONS ACROSS
MUCH OF THE UPPER MISSISSIPPI VALLEY
NATIONAL WEATHER SERVICE LA CROSSE WI
1000 AM CST MON FEB 20 2017


...SOUTHEAST MINNESOTA...


CITY           SKY/WX    TMP DP  RH WIND       PRES   REMARKS
ROCHESTER      LGT RAIN  48  47  96 S16       29.86S FOG
ROCHESTER/MAYO CLOUDY    50  50  99 SE10G18   29.86R
WINONA         CLOUDY    50  45  81 SE9       29.89F
AUSTIN         RAIN      48  46  93 SE14G20   29.82F
ALBERT LEA     RAIN      48  48 100 SE17G25   29.79F
DODGE CENTER   NOT AVBL
PRESTON        LGT RAIN  47  45  91 S10       29.89R
OWATONNA       DRIZZLE   50  46  87 SE16      29.78F
FARIBAULT      RAIN      52  48  87 SE14      29.79F
$$

...ELSEWHERE IN MINNESOTA...


CITY           SKY/WX    TMP DP  RH WIND       PRES   REMARKS
MINNEAPOLIS    CLOUDY    50  44  80 SE9       29.79F
INTNL FALLS    CLOUDY    43  35  73 SE10      29.73F
DULUTH         CLOUDY    41  35  79 SE13      29.84F
RED WING       CLOUDY    54  46  76 E14       29.82F
REDWOOD FALLS  LGT RAIN  51  48  89 S14       29.70S FOG
MANKATO        LGT RAIN  51  49  92 S12       29.77R FOG
WORTHINGTON    LGT RAIN  51  51 100 S14       29.69F FOG
FAIRMONT       LGT RAIN  50  49  96 S15       29.74F FOG
$$

...SOUTHWEST WISCONSIN...


CITY           SKY/WX    TMP DP  RH WIND       PRES   REMARKS
LA CROSSE      PTSUNNY   56  48  74 SE9       29.92F
PRAIRIE DU CHI CLOUDY    50  46  87 E10       29.92F FOG
BOSCOBEL       CLOUDY    53  48  83 VRB3      29.97F HAZE
LONE ROCK      NOT AVBL
PLATTEVILLE    CLOUDY    49  49 100 SE15      29.99F
FORT MC COY    CLOUDY    55  48  80 SE13      29.96R
MAUSTON-NEW LI PTSUNNY   49  43  79 SE7       29.98R
VIROQUA        CLOUDY    51  48  92 SE13      29.95S
WIS DELLS      CLOUDY    51  45  78 S13G18    30.00S
$$

...ELSEWHERE IN WISCONSIN...


CITY           SKY/WX    TMP DP  RH WIND       PRES   REMARKS
MILWAUKEE      PTSUNNY   49  40  71 SE9       30.11F
MADISON        CLOUDY    52  47  83 S17       30.04R
GREEN BAY      CLOUDY    46  36  68 SE13      30.11S
EAU CLAIRE     NOT AVBL
BLACK RVR FLS  PTSUNNY   52  42  70 CALM      29.94R
MEDFORD        CLOUDY    42  34  73 SE14G23   29.96F
WAUSAU         CLOUDY    41  33  73 E12       30.00F
WIS RAPIDS     PTSUNNY   49  42  77 SE10      30.01S
MARSHFIELD     CLOUDY    43  36  76 SE13      29.97F
RICE LAKE      PTSUNNY   46  39  76 SE15G21   29.91S
$$

...NORTHEAST IOWA...


CITY           SKY/WX    TMP DP  RH WIND       PRES   REMARKS
WATERLOO       CLOUDY    53  49  86 SE15      29.87F FOG
DUBUQUE        FOG       49  49 100 SE20G29   29.95F VSB 1/4
DECORAH        CLOUDY    48  48 100 S12G21    29.90R FOG
MASON CITY     LGT RAIN  48  47  96 SE14      29.83S FOG
CHARLES CITY   HVY RAIN  48  48 100 SE18G24   29.87F VSB 1/2
OELWEIN        CLOUDY    50  50 100 SE16      29.90R FOG
$$

...ELSEWHERE IN IOWA...


CITY           SKY/WX    TMP DP  RH WIND       PRES   REMARKS
DES MOINES     CLOUDY    61  55  81 S13       29.82F
IOWA CITY      CLOUDY    57  52  83 SE20      29.94F
FORT DODGE     CLOUDY    55  52  88 S9        29.79F
MARSHALLTOWN   CLOUDY    54  52  93 SE13      29.84F FOG
CEDAR RAPIDS   CLOUDY    55  53  93 SE17G24   29.89F FOG
$$

...NORTHERN ILLINOIS...


CITY           SKY/WX    TMP DP  RH WIND       PRES   REMARKS
CHICAGO-OHARE  CLOUDY    57  47  69 S13       30.11F
CHICAGO-MIDWAY CLOUDY    58  46  64 S9        30.12F
MOLINE         CLOUDY    55  50  83 SE10      29.99F HAZE
ROCKFORD       CLOUDY    53  47  79 S13       30.08S
PEORIA         CLOUDY    60  52  74 SE10      30.04F HAZE
$$

NOTE: "FAIR" INDICATES FEW OR NO CLOUDS BELOW 12,000 FEET WITH NO
SIGNIFICANT WEATHER AND/OR OBSTRUCTIONS TO VISIBILITY. WIND
SPEEDS ARE IN MILES-PER-HOUR.




USA.gov is the U.S. government's official web portal to all federal, state and local government web resources and services.